Regional Weather Roundup
Issued by NWS Charleston, SC

Current Version | Previous Version | Graphics & Text | Print | Product List | Glossary On
Versions: 1 2 3 4 5 6 7 8 9 10 11 12 13 14 15 16 17 18 19 20 21 22 23 24 25 26 27 28 29 30 31 32 33 34 35 36 37 38 39 40 41 42 43 44 45 46 47 48 49 50
000 ASUS42 KCHS 290710 RWRCHS REGIONAL WEATHER ROUNDUP NATIONAL WEATHER SERVICE CHARLESTON SC 300 AM EDT TUE JUL 29 2014 NOTE: "FAIR" INDICATES FEW OR NO CLOUDS BELOW 12,000 FEET WITH NO SIGNIFICANT WEATHER AND/OR OBSTRUCTIONS TO VISIBILITY. NOT ALL STATIONS ARE QUALITY CONTROLLED BY THE NATIONAL WEATHER SERVICE. USE DATA WITH CAUTION...ESPECIALLY DEWPOINT OBSERVATIONS. SCZ027-030-031-034>040-042>050-290800- ...SOUTH CAROLINA... CITY SKY/WX TMP DP RH WIND PRES REMARKS N CHARLESTON CLEAR 75 67 76 N7 29.84R WATERFRONT PRK N/A 81 N/A N/A N7 N/A FORT JOHNSON NOT AVBL MOUNT PLEASANT FAIR 79 66 65 CALM 29.83S JOHNS ISLAND SUNNY 79 70 73 CALM 29.83S PINOPOLIS N/A 82 66 57 N12 29.77R MONCKS CORNER N/A 81 68 65 N5 29.85R SUMMERVILLE FAIR 72 72 100 CALM 29.86R BEAUFORT MCAS PTCLDY 78 70 76 N6 29.84F BEAUFORT ARPT FAIR 79 72 78 NW8 29.84S HILTON HEAD IS CLEAR 79 72 78 CALM 29.85S GEORGETOWN NOT AVBL WALTERBORO SUNNY 73 66 78 N5 29.86S ORANGEBURG CLEAR 73 63 70 N5 29.87S BARNWELL FAIR 73 61 64 N6 29.88F AIKEN FAIR 70 61 73 NW6 29.93S MANNING FAIR 72 61 68 CALM 29.86R KINGSTREE NOT AVBL COLUMBIA PTCLDY 77 58 51 N3 29.87F SUMTER PTCLDY 74 60 63 N9 29.85S FLORENCE MOCLDY 74 61 63 N7 29.86R MYRTLE BEACH MOCLDY 75 70 83 N7 29.83R N MYRTLE BEACH PTCLDY 74 71 91 N6 29.83R $$ GAZ063-065-086>088-099>101-113>116-118-119-134-136>141-150-290800- ...GEORGIA... CITY SKY/WX TMP DP RH WIND PRES REMARKS SAVANNAH ARPT CLEAR 77 70 79 W6 29.86F HUNTER AAF CLEAR 77 71 82 W6 29.84F FORT STEWART CLEAR 76 71 84 NW5 29.86F STATESBORO NOT AVBL SYLVANIA SUNNY 73 71 95 NW3 29.88S CLAXTON FAIR 73 73 100 CALM 29.88F THOMSON CLEAR 67 67 100 NW3 29.96S AUGUSTA-BUSH CLEAR 66 63 90 W5 29.89S AUGUSTA-DANIEL CLEAR 75 61 61 NW6 29.91S SWAINSBORO FAIR 72 72 100 CALM 29.91S VIDALIA N/A 77 68 73 N6 29.89F ALMA NOT AVBL WAYCROSS MOCLDY 81 74 78 W5 29.90S JESUP FAIR 81 72 74 NW7 29.88S BRUNSWICK CLEAR 81 72 74 W7 29.88S SAINT SIMONS CLEAR 81 76 84 W9 29.87S $$ SCZ027-028-034-036>038-045-046-048>050-GAZ119-141-290800- ...LAKE AND SUPPLEMENTAL COASTAL OBSERVATIONS... STATION/POSITION TIME TEMP WIND PRES WAVE SWELL AIR SEA DIR/SP/G HT/PER HT/PER/DIR (UTC) (F) (DEG/KT/KT) (MB) (FT/S) (FT/S/D) UPR LAKE MARION NOT AVBL WINYAH BAY 0600 77 340/ 6 1009.0S LAKE MURRAY 0600 73 360/ 2/ 4 1011.5F ACE BASIN NERRS 0600 79 320/ 2 1011.0S FORT PULASKI 0700 80 290/ 11/ 14 1010.9F SAPELO ISLAND 0600 82 280/ 8 1012.0S $$ ANZ835-935-AMZ111-154-330-350-352-354-374-450-454-472-290800- ...C-MAN AND BUOY OBSERVATIONS... STATION/POSITION TIME TEMP WIND PRES WAVE SWELL AIR SEA DIR/SP/G HT/PER HT/PER/DIR (UTC) (F) (DEG/KT/KT) (MB) (FT/S) (FT/S/D) FOLLY BEACH CMAN 0600 80 330/ 5/ 8 1010.5R BUOY 41004 0700 84 84 330/ 12/ 14 1008.5R 4/ 6 3/ 6 BUOY 41008 0700 84 85 280/ 16/ 19 1010.6F 3/ 5 2/120/ 9 5E ST. MARYS GA 0700 85 N/A 2/ 9 FRYING PAN BUOY NOT AVBL BUOY 41025 0700 VRB 6/ 10 1009.7R 3/ 8 3/150/ 8 CAPE LOOKOUT NC 0600 77 40/ 4/ 5 1010.1R BUOY 41002 0649 82 81 230/ 17/ 23 1012.2F 6/ 7 BUOY 41010 0700 83 84 210/ 19/ 23 1013.1F 4/ 5 2/ 90/ 8 BUOY 41012 NOT AVBL ST AUGUSTINE FL 0700 79 240/ 8/ 10 1013.1F CAPERS NEARSHORE 0600 81 360/ 12/ 12 N/A FRIPP NEARSHORE NOT AVBL $$

USA.gov is the U.S. government's official web portal to all federal, state and local government web resources and services.